Washington, VA

2:24 AM EDT on July 23, 2017 (GMT -0400)
Ronald Reagan Washington National

Weather History for KDCA - April, 2013

Change the Weather History Date:

Thursday, April 25, 2013

  Actual Average Record
Temperature  
Mean Temperature 56 °F 60 °F  
Max Temperature 65 °F 70 °F 93 °F (1960)
Min Temperature 47 °F 50 °F 32 °F (1883)
Degree Days  
Heating Degree Days 9 6  
Month to date heating degree days 188 241  
Since 1 July heating degree days 3653 3917  
Cooling Degree Days 0 1  
Month to date cooling degree days 41 16  
Year to date cooling degree days 41 18  
Growing Degree Days 5 (Base 50)    
Moisture  
Dew Point 34 °F    
Average Humidity 42    
Maximum Humidity 59    
Minimum Humidity 24    
Precipitation  
Precipitation 0.01 in 0.10 in 1.50 in (1889)
Month to date precipitation 2.54 2.54  
Year to date precipitation 9.54 11.45  
Snow  
Snow 0.00 in 0.00 in T in (1919)
Month to date snowfall 0.0 0.0  
Since 1 July snowfall 3.1 15.4  
Snow Depth 0.00 in    
Sea Level Pressure  
Sea Level Pressure 30.21 in    
Wind  
Wind Speed 11 mph (NNW)    
Max Wind Speed 29 mph    
Max Gust Speed 37 mph    
Visibility 10 miles    
Events Rain    
T = Trace of Precipitation, MM = Missing Value Source: NWS Daily Summary

Daily Weather History Graph

Daily Weather History Graph

Search for Another Location

Airport or City:

Trip Planner

Search our weather history database for the weather conditions in past years. The results will help you decide how hot, cold, wet, or windy it might be!

Date:

Astronomy

Apr. 25, 2013 Rise Set
Actual Time 6:17 AM EDT 7:55 PM EDT
Civil Twilight 5:49 AM EDT 8:23 PM EDT
Nautical Twilight 5:15 AM EDT 8:57 PM EDT
Astronomical Twilight 4:39 AM EDT 9:33 PM EDT
Moon 8:05 PM EDT (4/25) 5:59 AM EDT (4/25)
Length of Visible Light 14h 34m
Length of Day
13h 37m
Full, 100% of the Moon is Illuminated
Apr 25
Full
Apr 25
Full
May 2
Last Quarter
May 9
New
May 18
First Quarter

Hourly Weather History & Observations

Time (EDT) Temp. Dew Point Humidity Pressure Visibility Wind Dir Wind Speed Gust Speed Precip Events Conditions
12:52 AM 61.0 °F 44.1 °F 54% 30.02 in 10.0 mi NW 20.7 mph 38.0 mph 0.00 in   Overcast
1:52 AM 57.9 °F 37.9 °F 47% 30.06 in 10.0 mi NNW 19.6 mph 27.6 mph N/A   Overcast
2:12 AM 55.4 °F 37.4 °F 51% 30.08 in 4.0 mi NNW 26.5 mph 33.4 mph 0.00 in Rain Light Rain
2:16 AM 53.6 °F 39.2 °F 58% 30.07 in 9.0 mi NNW 13.8 mph 33.4 mph 0.01 in Rain Light Rain
2:34 AM 53.6 °F 39.2 °F 58% 30.07 in 10.0 mi NW 16.1 mph 23.0 mph 0.01 in   Overcast
2:52 AM 53.1 °F 39.9 °F 61% 30.09 in 10.0 mi NNW 23.0 mph 29.9 mph 0.01 in   Overcast
3:52 AM 51.1 °F 34.0 °F 52% 30.13 in 10.0 mi NNW 27.6 mph 36.8 mph N/A   Overcast
4:52 AM 48.9 °F 30.0 °F 48% 30.17 in 10.0 mi North 19.6 mph 28.8 mph N/A   Mostly Cloudy
5:52 AM 48.0 °F 30.0 °F 50% 30.22 in 10.0 mi NNW 15.0 mph 21.9 mph N/A   Scattered Clouds
6:52 AM 46.9 °F 30.9 °F 54% 30.25 in 10.0 mi North 11.5 mph - N/A   Scattered Clouds
7:52 AM 48.9 °F 32.0 °F 52% 30.27 in 10.0 mi NNW 10.4 mph - N/A   Scattered Clouds
8:52 AM 51.1 °F 32.0 °F 48% 30.28 in 10.0 mi NNW 15.0 mph - N/A   Scattered Clouds
9:52 AM 53.1 °F 30.0 °F 41% 30.29 in 10.0 mi NNW 13.8 mph - N/A   Partly Cloudy
10:52 AM 55.0 °F 30.0 °F 38% 30.30 in 10.0 mi NNW 10.4 mph 16.1 mph N/A   Partly Cloudy
11:52 AM 57.0 °F 30.0 °F 36% 30.29 in 10.0 mi North 9.2 mph - N/A   Scattered Clouds
12:52 PM 59.0 °F 30.0 °F 33% 30.27 in 10.0 mi NNW 8.1 mph - N/A   Partly Cloudy
1:52 PM 62.1 °F 32.0 °F 32% 30.25 in 10.0 mi North 8.1 mph - N/A   Partly Cloudy
2:52 PM 62.1 °F 30.0 °F 30% 30.24 in 10.0 mi NE 8.1 mph - N/A   Partly Cloudy
3:52 PM 64.0 °F 27.0 °F 25% 30.23 in 10.0 mi SW 4.6 mph - N/A   Clear
4:52 PM 64.0 °F 28.0 °F 26% 30.22 in 10.0 mi ENE 5.8 mph - N/A   Clear
5:52 PM 64.0 °F 28.0 °F 26% 30.21 in 10.0 mi ESE 3.5 mph - N/A   Clear
6:52 PM 63.0 °F 32.0 °F 31% 30.22 in 10.0 mi Calm Calm - N/A   Clear
7:52 PM 60.1 °F 33.1 °F 36% 30.22 in 10.0 mi South 5.8 mph - N/A   Partly Cloudy
8:52 PM 57.9 °F 36.0 °F 44% 30.25 in 10.0 mi SE 11.5 mph - N/A   Partly Cloudy
9:52 PM 55.9 °F 37.9 °F 51% 30.28 in 10.0 mi South 6.9 mph - N/A   Partly Cloudy
10:35 PM 55.4 °F 39.2 °F 54% 30.30 in 10.0 mi South 11.5 mph - N/A   Scattered Clouds
10:52 PM 54.0 °F 39.0 °F 57% 30.31 in 10.0 mi SSW 9.2 mph - N/A   Mostly Cloudy
11:52 PM 54.0 °F 39.0 °F 57% 30.32 in 10.0 mi WSW 4.6 mph - N/A   Mostly Cloudy